Dewpoint
55 55 55 56 56 56 57 57 57 57 57 57 57 58 58 58 58 58 58 59 59 59 59 59 60 60 60 61 61 61 59 48 46 41 35 35 45 61 63 63 64 65 59 33 32 28 28 29 27 30 35 33 35 32 35 36 39 33 24 24 18 20 21 26 24 21 21 18 17 17 19 17 16 18 18 19 19 19 19 18 18 20 22 23 23 43 45 47
55 54 55 55 56 56 56 56 57 57 57 57 57 57 57 57 58 58 58 58 58 59 59 60 60 60 61 61 61 61 56 46 40 38 35 48 65 66 65 65 65 64 49 32 30 29 27 27 29 33 31 28 37 34 37 35 37 31 29 17 16 25 24 29 25 22 18 19 17 18 20 18 18 19 20 18 17 18 18 19 18 18 18 19 20 23 43 47
55 54 54 55 55 55 56 56 57 56 57 57 57 57 57 57 57 58 58 58 58 58 59 59 60 60 61 61 60 60 53 39 25 25 31 62 67 66 66 65 63 60 36 34 32 28 26 27 29 30 31 26 30 30 35 34 34 34 28 25 27 28 25 27 24 23 19 20 19 19 21 20 21 20 22 19 18 20 19 18 18 17 16 17 19 20 32 45
55 55 54 55 56 55 56 56 57 56 57 57 57 57 57 57 57 57 58 58 58 58 58 59 60 60 60 60 61 57 41 26 21 26 34 64 67 67 67 64 63 52 36 34 31 29 28 28 29 30 30 27 28 35 33 35 28 31 28 26 26 29 26 24 27 26 26 20 20 21 21 21 21 21 20 19 20 19 19 19 18 17 17 17 19 23 23 40
55 55 55 54 55 56 55 56 56 57 57 57 57 57 57 57 57 57 58 58 58 58 58 59 59 60 60 60 60 50 28 17 21 31 36 67 66 67 66 65 61 39 37 34 29 27 27 26 28 29 29 25 26 27 32 34 30 32 28 28 29 27 24 24 24 24 22 21 21 21 21 21 22 23 22 21 20 19 19 19 19 18 18 19 20 21 30 35
54 55 55 55 55 55 56 56 57 57 57 57 57 57 57 57 58 57 57 58 58 58 58 59 59 59 59 60 53 39 25 12 24 33 65 66 67 66 65 64 58 40 34 32 31 28 27 25 25 26 23 21 22 18 18 32 32 25 27 28 29 27 25 26 24 23 22 23 21 21 22 21 21 20 22 21 20 20 21 21 21 22 22 21 21 22 22 24
54 54 55 55 55 55 56 56 56 57 57 57 56 57 57 58 58 58 57 57 58 58 58 58 59 59 59 58 50 30 25 22 28 36 64 67 66 65 64 60 52 37 33 32 30 28 28 24 23 26 23 22 21 20 20 25 27 28 25 27 26 29 28 28 27 27 26 22 21 21 21 19 19 18 21 21 20 21 21 21 21 23 24 23 22 22 21 22
55 54 55 55 55 55 55 56 56 56 56 56 56 57 57 58 58 58 58 58 58 58 58 58 58 58 58 45 38 35 34 30 31 44 63 63 59 57 51 44 40 37 32 31 29 27 25 23 23 26 20 17 18 21 23 23 27 29 28 28 25 22 25 27 26 23 21 20 20 21 19 19 19 18 19 18 18 19 20 20 21 21 19 19 19 18 20 25
55 55 54 55 55 55 55 55 56 56 56 56 57 57 58 58 58 58 58 58 58 57 58 58 58 58 57 42 35 31 28 40 40 52 58 54 50 43 41 38 38 34 33 32 29 29 26 24 23 21 16 20 22 20 23 21 19 27 26 23 21 20 20 20 20 20 20 20 21 19 18 19 19 21 19 18 19 19 22 22 20 19 19 19 20 26 30 33
55 55 55 55 55 55 55 56 56 56 56 57 57 58 58 58 58 58 58 58 58 58 57 58 58 58 47 38 34 26 31 41 58 58 55 52 45 41 42 40 36 34 32 33 28 27 26 25 24 26 24 25 23 22 23 21 19 23 23 21 20 20 20 21 20 20 21 20 20 18 18 18 19 20 16 18 20 22 20 19 19 19 19 20 28 33 34 35
55 55 55 55 57 56 56 56 56 56 57 57 58 58 58 58 58 58 58 58 58 57 57 57 59 53 43 36 29 24 36 50 55 55 53 49 42 38 39 42 37 34 33 34 31 28 28 28 32 29 30 22 23 22 22 21 22 22 21 21 21 20 20 20 20 19 20 19 20 19 18 19 19 22 16 17 19 21 19 19 19 20 20 24 32 34 35 35
56 55 55 55 56 56 56 57 56 57 57 58 58 58 58 58 58 58 58 57 57 57 57 57 58 51 41 37 30 24 42 46 55 54 50 45 43 41 43 43 39 38 32 31 35 40 34 33 31 25 21 26 21 23 22 23 23 22 21 20 20 19 19 19 19 20 20 19 19 19 18 18 20 17 18 18 19 19 19 19 19 21 21 29 34 34 35 35
55 55 55 56 56 56 56 56 57 57 58 58 58 58 58 58 58 58 57 57 57 57 57 58 56 53 33 25 25 37 42 45 55 51 49 46 45 45 46 43 41 37 34 33 35 38 41 34 29 26 28 24 24 23 24 25 24 22 20 19 18 20 19 20 23 21 19 19 20 19 18 20 19 18 18 19 20 19 18 18 19 20 23 33 34 34 35 35
56 55 55 56 56 56 56 57 57 58 58 58 58 58 58 58 58 58 58 57 58 57 57 58 52 49 25 21 26 38 43 51 53 53 50 46 41 43 42 41 40 39 41 35 37 39 39 36 32 29 31 26 24 30 24 24 23 20 20 19 19 19 20 22 21 20 20 22 19 22 20 19 18 18 19 22 20 18 18 18 18 21 29 33 34 34 34 34
57 57 56 56 56 57 58 58 58 58 58 58 58 58 58 58 58 57 57 56 57 56 57 56 50 33 28 27 34 39 55 48 50 50 51 41 41 39 41 38 34 35 38 36 36 39 39 36 32 29 28 29 27 24 22 23 25 24 19 20 25 19 21 22 23 23 20 21 19 18 20 18 18 18 18 20 19 19 18 18 20 29 32 33 34 34 33 33
58 57 56 56 57 58 58 58 57 58 58 58 58 58 58 58 58 57 57 54 54 58 53 48 49 33 28 28 33 47 40 41 40 44 45 45 42 38 41 38 38 31 33 32 34 32 31 31 28 28 29 26 24 25 24 22 23 26 19 22 22 22 20 21 22 22 24 20 18 18 19 17 18 19 19 19 19 19 20 20 24 32 33 33 32 32 32 33
58 57 56 57 57 57 58 57 57 57 58 58 58 58 58 59 57 57 57 57 54 54 51 45 49 40 30 34 37 33 34 38 42 43 40 42 41 39 35 36 34 30 31 32 33 32 30 28 30 27 26 24 23 25 20 22 20 21 23 20 24 20 20 19 22 24 25 17 16 17 17 16 17 17 17 18 24 23 23 21 30 32 32 32 32 32 32 32
58 57 57 57 57 57 58 57 57 57 58 58 58 58 56 58 57 57 55 54 53 50 47 51 47 35 28 33 31 31 41 40 42 43 41 39 39 34 33 32 31 29 29 27 29 29 30 27 28 26 26 24 22 22 21 19 21 22 22 20 22 23 21 19 20 22 23 23 21 20 18 18 18 19 21 22 25 24 23 25 32 32 32 32 31 31 31 32
58 57 57 57 58 58 58 57 57 58 58 58 58 57 58 56 50 51 52 51 43 38 34 36 33 29 27 31 34 36 42 41 42 41 39 39 39 35 34 33 32 28 28 26 26 27 28 29 30 24 22 23 21 20 20 22 23 21 22 23 25 23 23 21 22 23 23 22 21 22 22 22 22 22 22 24 25 28 26 31 31 31 31 31 31 31 31 31
58 58 58 58 58 58 57 57 58 58 59 58 55 53 47 45 43 41 44 46 43 38 36 36 37 35 34 35 37 39 41 39 38 38 40 38 35 32 32 30 33 31 29 31 30 27 30 25 23 24 24 23 22 21 21 21 22 23 24 23 22 23 22 23 23 23 25 22 22 22 22 22 22 22 24 28 30 31 30 31 31 31 31 31 31 31 31 31
58 58 58 58 58 57 57 58 58 59 58 58 55 49 43 43 39 39 41 44 45 44 40 40 36 35 34 38 39 37 36 37 37 38 38 39 34 32 31 29 29 29 29 33 30 28 27 25 25 26 25 24 23 22 21 21 21 21 22 22 21 23 20 22 22 24 25 23 23 24 24 24 23 24 29 31 31 31 30 31 30 30 31 31 30 30 30 31
58 58 58 58 57 57 58 58 59 59 58 57 52 46 44 44 44 44 41 39 42 44 44 44 44 42 43 39 39 39 41 40 38 37 38 37 33 32 31 29 29 30 30 29 27 26 25 24 25 25 26 25 25 24 23 21 22 22 21 22 22 22 24 25 25 27 26 25 23 25 23 24 24 27 30 31 31 32 32 32 32 31 31 31 30 30 29 29
58 58 58 57 57 58 58 59 59 59 55 51 46 44 43 45 46 45 43 40 39 42 43 43 42 42 43 42 40 40 40 39 39 40 35 36 33 33 30 29 29 29 30 27 29 25 25 27 26 26 27 25 25 25 23 24 25 23 24 22 22 25 24 24 26 28 27 25 25 26 23 24 24 29 29 30 30 30 31 31 31 32 31 30 30 30 29 28
58 58 58 57 58 58 59 59 59 56 50 47 46 45 46 46 45 43 40 37 37 39 41 41 41 41 41 40 40 41 41 40 40 40 39 33 32 34 30 29 28 29 27 27 28 27 27 27 26 26 26 25 25 25 24 24 24 26 26 25 25 25 25 25 23 27 27 27 26 23 24 24 25 24 28 29 30 29 30 30 30 30 31 31 30 29 29 28
58 58 58 58 58 58 58 59 54 50 48 48 47 47 46 45 44 43 39 35 34 36 42 41 43 42 40 42 42 38 38 37 39 38 39 33 32 31 30 30 29 28 29 28 27 28 28 29 29 26 28 26 26 25 26 27 24 26 28 26 26 26 25 26 27 25 24 25 27 23 20 20 24 25 27 28 29 28 29 28 28 29 29 29 27 28 28 28
57 57 57 58 58 58 59 53 49 50 48 48 48 47 46 44 44 41 36 32 32 34 37 36 43 39 41 36 39 39 38 37 35 35 39 34 36 33 32 29 30 30 29 28 27 28 27 29 30 29 28 27 27 26 27 27 25 25 26 28 27 27 26 26 26 26 22 20 23 26 19 18 23 24 26 27 28 27 28 28 28 27 27 27 27 27 27 26
58 57 58 58 58 59 55 48 49 50 49 49 49 47 46 46 45 43 35 31 30 35 35 40 37 36 37 35 37 37 32 34 33 33 33 35 33 34 31 31 31 31 30 30 29 28 30 30 28 29 29 28 26 25 27 28 27 25 28 28 28 27 26 27 26 26 25 25 26 24 23 21 20 22 24 28 27 27 27 27 27 26 27 27 26 27 26 26
57 58 58 58 58 58 55 52 53 50 49 49 49 47 46 46 45 40 35 28 26 34 33 34 36 38 33 30 36 34 33 31 32 33 32 32 32 31 31 29 30 30 28 31 27 31 30 28 28 28 28 27 27 28 29 30 27 27 28 29 28 28 27 26 25 24 24 22 22 23 24 20 19 22 26 27 26 26 26 26 26 26 27 26 26 27 26 27
57 58 58 58 58 58 58 56 53 51 51 49 48 48 47 46 41 36 32 29 33 33 34 30 36 31 31 33 32 27 26 25 29 31 34 33 34 32 30 30 31 31 29 30 29 30 30 28 29 30 29 27 29 29 30 30 27 28 29 29 28 28 27 26 24 23 22 20 19 21 23 17 20 23 24 23 24 26 27 26 26 27 26 26 26 26 26 26
58 58 58 58 58 57 56 56 54 53 50 49 49 48 47 43 36 33 31 28 34 29 30 31 30 28 30 30 31 27 23 24 29 30 31 31 31 29 28 32 28 27 29 29 28 31 31 33 33 29 28 30 30 30 31 30 29 30 29 27 27 25 25 24 23 22 18 14 21 23 23 21 17 22 23 23 25 25 27 26 27 26 26 26 26 26 26 26
58 58 58 58 55 56 56 53 56 52 51 50 49 49 46 42 35 32 30 33 35 32 29 29 27 29 26 28 28 28 25 26 28 30 29 30 29 30 28 26 28 27 26 27 28 29 29 28 27 28 33 31 31 28 28 29 29 28 26 25 25 24 20 19 15 19 15 16 17 21 23 22 16 18 22 24 26 27 26 25 25 24 24 25 25 25 25 25
55 57 57 57 55 56 55 53 55 52 51 51 51 50 44 36 37 32 32 34 33 34 29 29 30 28 26 29 28 27 26 25 27 28 28 28 28 28 27 26 26 21 22 25 27 27 28 30 30 28 34 30 27 28 27 28 27 27 25 24 19 17 18 12 12 13 14 16 18 23 23 21 20 22 23 26 26 26 27 25 24 23 24 24 25 25 26 26
54 55 56 55 54 54 54 53 53 52 52 53 52 46 39 34 30 34 32 33 29 33 31 34 29 29 27 27 27 28 29 25 26 28 29 28 29 29 30 27 28 25 22 25 25 24 25 27 28 28 28 30 30 25 24 24 25 25 25 23 18 15 14 11 10 6 9 16 18 22 23 18 21 22 26 26 26 26 26 25 25 23 23 24 24 26 25 25
54 54 53 52 53 54 53 53 53 53 53 52 49 43 38 31 31 39 34 33 34 37 34 31 30 30 28 27 28 29 26 28 27 26 28 26 27 26 28 29 28 27 26 25 24 23 19 23 26 28 27 30 29 27 27 26 25 25 25 25 24 18 9 11 6 12 15 17 15 17 14 13 15 18 25 26 26 26 25 25 25 24 24 24 25 26 26 25
52 51 51 51 52 53 53 53 53 53 53 50 44 40 33 31 32 33 33 34 35 34 32 34 30 28 28 29 30 31 30 27 27 27 27 26 25 26 26 27 29 29 28 24 26 23 24 24 26 28 29 28 28 30 30 27 26 25 25 25 20 22 20 17 14 9 9 12 14 15 16 19 21 24 26 25 25 25 26 25 26 24 26 26 26 26 26 25
50 50 52 49 50 52 53 53 53 53 52 47 41 35 33 33 31 33 34 37 35 33 33 34 32 27 28 29 31 30 33 29 30 26 25 26 27 26 28 28 28 28 27 25 25 22 23 23 27 29 28 27 27 30 29 28 22 25 25 20 25 26 23 17 19 17 14 12 19 13 21 23 23 24 24 25 24 24 24 24 23 24 25 25 24 25 26 26
47 49 47 48 49 51 53 53 53 51 50 46 39 34 37 35 35 36 41 34 35 35 33 30 31 29 29 29 29 31 32 32 30 27 26 28 26 27 27 29 30 28 28 28 26 27 22 23 27 27 27 28 28 29 29 29 28 26 21 24 27 27 27 22 16 13 10 14 15 15 18 19 20 18 23 22 22 22 23 23 23 24 24 25 24 25 26 26
46 46 47 46 49 52 53 53 52 51 48 41 36 36 36 36 37 35 38 36 35 37 33 31 31 31 29 28 29 29 32 31 30 28 27 28 26 30 28 28 30 29 28 30 25 26 28 22 25 28 27 28 28 28 28 28 28 26 25 27 24 18 19 22 16 16 14 12 13 15 19 20 21 21 22 22 21 21 22 22 23 23 24 25 24 26 26 26
46 45 42 46 48 53 53 53 52 50 45 38 34 34 38 37 36 37 37 37 38 37 34 34 30 31 31 28 30 30 31 29 29 28 26 27 26 30 28 30 30 33 34 30 27 28 27 20 25 29 28 29 27 28 25 25 28 28 27 25 26 24 18 17 20 16 15 13 14 13 17 19 22 22 23 23 22 21 21 22 22 23 24 24 24 25 26 26
44 43 40 47 49 52 53 53 50 47 42 33 35 36 37 36 37 37 38 38 36 36 34 33 33 30 29 30 30 28 30 31 29 29 27 28 28 31 30 35 31 31 33 31 30 33 26 26 18 24 27 27 25 26 25 26 24 25 24 23 24 20 25 25 21 20 19 16 19 20 19 19 23 25 24 24 22 21 21 22 23 24 24 25 25 26 27 27
43 42 41 49 50 53 53 49 44 39 36 36 37 36 35 35 39 37 38 39 37 39 34 34 33 32 31 30 31 29 28 29 29 29 28 27 27 25 30 34 33 30 31 28 28 28 23 25 24 23 27 25 27 27 27 27 28 27 26 25 26 24 21 21 22 23 21 22 20 20 19 22 27 29 25 24 23 22 22 24 24 24 25 25 27 28 29 28
42 36 40 50 51 53 48 39 39 40 37 36 35 36 35 39 35 35 38 39 37 36 38 35 34 33 31 32 31 30 29 29 29 28 28 28 29 28 33 32 34 31 29 27 28 30 29 27 24 23 26 28 28 29 29 28 28 27 27 26 26 25 24 19 21 19 19 22 20 19 20 22 27 28 29 27 24 22 23 25 24 25 26 27 28 30 30 29
40 38 47 49 50 51 44 37 38 38 37 37 36 36 36 35 35 35 37 37 36 37 35 36 36 34 34 32 32 31 31 30 30 30 29 29 29 30 32 32 32 32 32 31 32 32 35 24 23 26 25 26 27 27 29 30 30 29 28 27 26 25 26 25 23 22 19 19 20 19 21 24 28 30 28 26 24 24 25 25 25 27 28 29 28 30 31 30
40 41 43 48 50 49 40 32 32 35 36 36 36 36 37 35 35 35 34 36 36 36 34 34 35 35 33 35 33 32 33 29 31 31 30 31 31 32 32 32 34 32 31 33 30 33 25 25 27 21 21 22 24 26 29 28 29 27 26 26 28 27 27 27 25 24 23 24 24 21 20 22 29 29 27 26 25 25 25 26 27 29 29 30 29 30 31 30
40 39 42 45 48 47 38 35 32 33 34 34 34 34 34 35 37 35 35 34 37 37 35 34 34 36 35 35 34 33 34 31 29 31 31 31 32 32 32 31 33 34 34 34 36 31 28 27 26 23 22 20 19 18 17 22 26 25 26 26 26 28 27 26 24 23 24 27 27 24 24 27 30 30 28 27 26 25 26 28 29 29 28 28 28 28 27 26
34 29 39 41 45 44 43 41 39 33 31 33 32 33 34 33 33 36 37 35 35 36 36 35 35 36 34 33 33 33 33 33 32 29 31 31 31 31 32 29 31 31 35 38 34 31 27 27 28 28 26 23 24 20 21 27 24 23 23 25 26 26 25 23 21 21 24 24 22 24 24 23 25 26 27 27 25 25 26 26 26 25 26 26 26 26 26 24
32 28 35 32 40 40 39 41 38 36 31 32 30 31 31 32 32 32 37 33 36 35 35 35 34 33 32 33 33 33 33 32 32 30 30 30 31 30 31 30 31 34 37 34 32 24 23 25 27 28 27 27 25 22 23 28 25 24 23 24 25 24 21 22 23 22 22 21 21 25 23 20 24 25 26 25 24 24 25 23 23 23 24 25 25 24 27 22
25 26 37 38 34 32 34 36 40 38 35 34 30 33 31 30 31 29 34 36 36 37 33 33 35 35 34 34 32 31 31 31 30 31 30 29 30 31 30 30 29 32 32 29 30 29 25 26 25 27 26 25 26 25 26 26 26 25 25 24 24 24 21 22 20 26 23 23 22 23 23 22 23 24 26 27 26 26 26 25 24 24 23 23 22 23 23 21
30 28 33 34 33 32 35 36 38 38 36 35 33 35 32 30 30 30 32 33 34 33 36 31 32 35 34 35 34 31 30 29 30 28 29 27 28 28 27 29 31 28 28 29 26 26 26 21 21 22 22 21 22 25 24 25 23 23 24 25 26 26 25 24 23 24 24 23 23 23 21 22 23 23 22 23 24 24 23 23 22 21 22 23 22 22 22 20
27 26 27 32 31 29 32 37 38 37 35 36 33 32 32 31 30 31 32 33 31 32 34 34 32 32 34 33 33 32 31 32 30 30 29 30 27 27 27 29 26 27 27 28 27 28 30 24 27 22 23 20 18 22 23 21 22 21 22 22 23 21 21 23 24 24 21 19 21 22 21 22 23 24 23 23 23 23 22 21 20 21 22 22 22 21 21 21
31 32 31 30 30 29 33 35 37 36 34 35 33 32 33 33 32 32 31 34 33 32 33 33 34 31 32 33 33 34 33 32 31 31 30 32 31 29 31 29 29 25 26 26 25 26 27 22 20 19 21 19 18 23 21 18 18 17 18 19 18 18 18 19 20 21 19 19 19 17 15 17 19 19 21 17 16 17 18 18 17 19 21 22 21 20 20 18
31 31 32 30 28 33 32 33 35 35 32 34 34 33 32 32 32 32 31 32 32 33 34 34 34 34 31 32 32 33 32 29 31 30 30 29 30 29 30 30 31 29 27 29 24 25 25 22 19 17 19 18 18 17 14 15 17 17 18 18 16 16 17 17 17 19 20 19 16 14 15 16 15 18 17 17 16 14 14 13 14 15 15 18 18 16 14 12